USA 149 (DSP 20)

Last updated on Wed Sep 09 2026 00:02:57 GMT+0000 (Coordinated Universal Time)

1 26356U 00024A 26251.12032661 -.00000290 00000+0 00000+0 0 9995 2 26356 13.2603 11.3176 0011727 38.5440 140.4696 0.99198852 33759
UTC large
Height (km)
Speed (km/s)
/
Latitude / Longitude
Inclination (degrees)
Orbital Period (minutes)
Azimuth
Elevation
Range (km)
Doppler Factor

Next 0 passes for location: London (51.5072 / 0.1276)

No passes found over London.
USA 149 (DSP 20)